Regional Weather Roundup
Issued by NWS

Home | Current Version | Previous Version | Text Only | Print | Product List | Glossary On
Versions: 1 2 3 4 5 6 7 8 9 10 11 12 13 14 15 16 17 18 19 20 21 22 23 24 25 26 27 28 29 30 31 32 33 34 35 36 37 38 39 40 41 42 43 44 45 46 47 48 49 50
000
ASUS46 KSEW 270210
RWRWA

WASHINGTON REGIONAL WEATHER ROUNDUP
NATIONAL WEATHER SERVICE SEATTLE WA
700 PM PDT SUN MAR 26 2017

NOTE:"FAIR" INDICATES FEW OR NO CLOUDS BELOW 12,000 FEET WITH NO
SIGNIFICANT WEATHER AND/OR OBSTRUCTIONS TO VISIBILITY.

WAZ507-509-555>559-270300-
SEATTLE, TACOMA, EVERETT, AND VICINITY

CITY           SKY/WX    TMP DP  RH WIND       PRES   REMARKS
EVERETT        LGT RAIN  47  42  83 SE12      29.74S
BOEING FIELD   CLOUDY    49  47  93 SE6       29.76R
RENTON         CLOUDY    48  46  93 E5        29.75R
SEATAC AIRPORT CLOUDY    48  44  86 SE7       29.75R
JBLM-MCCHORD   LGT RAIN  48  48 100 SW5       29.77R
PUYALLUP       DRIZZLE   48  46  93 SW6       29.76R
BREMERTON      CLOUDY    43  43 100 CALM      29.79R
JBLM-FT LEWIS  LGT RAIN  47  47 100 S5        29.76R
TACOMA NARROWS LGT RAIN  45  45 100 CALM      29.77R FOG
$$

WAZ001-503-506-510-514-515-270300-
NORTH INTERIOR

CITY           SKY/WX    TMP DP  RH WIND       PRES   REMARKS
BELLINGHAM     LGT RAIN  47  43  86 CALM      29.73S
FRIDAY HARBOR  LGT RAIN  47  42  83 SE10      29.73R
EASTSOUND      LGT RAIN  46  43  87 S10G18    29.69F
PORT ANGELES   LGT RAIN  46  42  86 CALM      29.71R
EDIZ HOOK      CLOUDY    47  42  82 W7        29.71R
PORT TOWNSEND  CLOUDY    46  43  87 SE8       29.74R
NAS WHIDBEY    LGT RAIN  49  42  77 SE13      29.76S
ARLINGTON      CLOUDY    46  39  76 S3        29.77S
BURLINGTON     CLOUDY    48  43  81 SE7       29.74S
$$

WAZ020-022-039-040-504-511-512-270300-
SOUTHWEST INTERIOR

CITY           SKY/WX    TMP DP  RH WIND       PRES   REMARKS
SHELTON        LGT RAIN  43  42  97 CALM      29.74S FOG
OLYMPIA        LGT RAIN  47  46  97 S9        29.77R
CHEHALIS       LGT RAIN  48  48 100 S6        29.77R
KELSO          RAIN      48  45  89 SE6       29.81R
VANCOUVER      CLOUDY    47  47 100 SE3       29.81R
SCAPPOOSE, OR  LGT RAIN  47  47 100 CALM      29.80R
PORTLAND, OR   MOCLDY    47  47 100 CALM      29.82R
$$

WAZ021-516-517-270300-
WASHINGTON COAST

CITY           SKY/WX    TMP DP  RH WIND       PRES   REMARKS
FORKS          LGT RAIN  46  45  93 S9        29.72R FOG
HOQUIAM        CLOUDY    48  48 100 SW10      29.76R
ASTORIA, OR    CLOUDY    48  44  86 W9        29.80R
$$

WAZ019-023-024-040-567>569-270300-
CASCADE MOUNTAINS AND COLUMBIA GORGE

CITY           SKY/WX    TMP DP  RH WIND       PRES   REMARKS
STAMPEDE PASS  NOT AVBL
TROUTDALE, OR  LGT RAIN  47  44  90 N5        29.82R
THE DALLES, OR CLOUDY    46  44  93 NW8       29.82R
$$

WAZ026-027-041>044-520-521-270300-
EAST SLOPES

CITY           SKY/WX    TMP DP  RH WIND       PRES   REMARKS
OMAK           LGT RAIN  42  38  85 SE3       29.82S
WENATCHEE      CLOUDY    42  39  89 NW3       29.81S
ELLENSBURG     LGT RAIN  43  39  86 E7        29.78F
YAKIMA         CLOUDY    47  43  86 CALM      29.80F
SUNNYSIDE ARPT DRIZZLE   46  43  90 E6        29.81F
$$

WAZ028-034-035-270300-
COLUMBIA BASIN

CITY           SKY/WX    TMP DP  RH WIND       PRES   REMARKS
EPHRATA        CLOUDY    45  36  70 S3        29.81S
MOSES LAKE     LGT RAIN  46  39  76 S5        29.83R
PASCO          LGT RAIN  50  44  80 CALM      29.84S
HERMISTON, OR  LGT RAIN  49  48  97 NE6       29.81F
$$

WAZ036>038-270300-
NORTHEAST WASHINGTON

CITY           SKY/WX    TMP DP  RH WIND       PRES   REMARKS
SPOKANE GEIGER CLOUDY    44  38  79 S3        29.82R
SPOKANE FELTS  CLOUDY    46  40  79 CALM      29.82S
FAIRCHILD AFB  LGT RAIN  42  42 100 SW6       29.80S
COEURDALENE,ID CLOUDY    43  41  93 E6        29.82F
DEER PARK      CLOUDY    42  40  92 NE5       29.81F
$$

WAZ029>033-270300-
SOUTHEAST WASHINGTON

CITY           SKY/WX    TMP DP  RH WIND       PRES   REMARKS
PULLMAN        CLOUDY    44  39  82 E5        29.82F
LEWISTON, ID   CLOUDY    48  42  80 E6        29.82S
WALLA WALLA    LGT RAIN  50  45  83 CALM      29.83R
PENDLETON, OR  RAIN      48  46  93 CALM      29.82R
$$



USA.gov is the U.S. government's official web portal to all federal, state and local government web resources and services.